Location: Ripley
(48.3812°N, 115.4473°W)
Time: 03:17:51
(UTC+00:00)

CAS-6 - Pass Details

Date: 28 June 2022
Orbit: 613 x 634 km, 97.9° (Epoch: 13 August)

Event Time Altitude Azimuth Distance (km) Brightness Sun altitude
Exits shadow 06:07:48 23° 183° (S) 1,353 ? -15.1°
Maximum altitude 06:10:27 62° 258° (WSW) 708 ? -15.3°
Drops below altitude 10° 06:14:47 10° 340° (NNW) 2,008 ? -15.5°
Sets 06:17:00 0° 344° (NNW) 2,917 ? -15.7°
